Flag for U.S.A. Weather past 2 weeks in Rapid City, South Dakota, U.S.A.

Now
48 °F

Light rain. Cloudy.


Feels Like: 45 °F
Forecast: 42 / 47 °F
Wind: 8 mph from North

Location: Ellsworth Air Force Base

Current Time: Apr 18, 2015 at 2:20:59 PM

Latest Report: Apr 18, 2015 at 2:03 PM


Visibility: 7 mi

Pressure: 29.93 "Hg

Humidity: 87%

Dew point: 45 °F

Location of Rapid CityLocation

Historic Weather in Rapid City — Graph

°F

Rapid City temperature yesterday

Maximum temperature yesterday: 59 °F (at 1:58 PM)
Minimum temperature yesterday: 36 °F (at 5:58 AM)
Average temperature yesterday: 50 °F

Past Weeks' High & Low Weather Summary

 TemperatureHumidityPressure
High81 °F (Apr 14, 3:58 PM)100% (Apr 6, 9:58 PM)30.29 "Hg (Apr 6, 9:58 PM)
Low29 °F (Apr 6, 6:58 AM)12% (Apr 11, 5:58 PM)29.49 "Hg (Apr 12, 2:58 AM)
Average47 °F55%29.96 "Hg
* Reported Apr 3 12:58 PM — Apr 18 12:58 PM, Rapid City, Weather by CustomWeather, © 2015

Note: Actual official high and low records may vary slightly from our data, if they occured in-between our weather recording intervals... More about our weather records

Advertising

Rapid City weather history for previous 24 hours

 ConditionsComfort  
Time TempWeatherWind HumidityBarometerVisibility
12:58 PM
Sat, Apr 18
47 °FLight rain. Mostly cloudy.12 mph90%29.95 "Hg10 mi
11:58 AM48 °FLight rain. Overcast.6 mph84%29.98 "Hg10 mi
10:58 AM51 °FLight rain. More clouds than sun.10 mph79%29.98 "Hg10 mi
9:58 AM52 °FOvercast.5 mph71%29.99 "Hg10 mi
8:58 AM51 °FOvercast.2 mph86%30.00 "Hg10 mi
7:58 AM49 °FOvercast.3 mph100%30.00 "Hg10 mi
6:59 AM48 °FOvercast.6 mph100%30.00 "Hg10 mi
5:58 AM47 °FMostly cloudy.2 mph100%30.01 "Hg10 mi
5:03 AM48 °FLight rain. Passing clouds.No wind94%30.01 "Hg10 mi
4:58 AM48 °FLight rain. Mostly cloudy.No wind94%30.02 "Hg10 mi
3:58 AM48 °FOvercast.5 mph98%30.01 "Hg10 mi
2:58 AM48 °FMostly cloudy.5 mph99%30.03 "Hg10 mi
1:58 AM48 °FOvercast.5 mph93%30.05 "Hg10 mi
12:58 AM49 °FOvercast.2 mph91%30.07 "Hg10 mi
11:58 PM
Fri, Apr 17
48 °FOvercast.6 mph97%30.10 "Hg10 mi
11:04 PM48 °FMostly cloudy.5 mph94%30.10 "Hg10 mi
10:58 PM48 °FLight rain. Mostly cloudy.6 mph94%30.12 "Hg10 mi
9:58 PM49 °FMostly cloudy.12 mph90%30.13 "Hg10 mi
8:58 PM50 °FPassing clouds.8 mph78%30.14 "Hg10 mi
7:58 PM51 °FPartly cloudy.9 mph64%30.13 "Hg10 mi
6:58 PM53 °FPartly sunny.9 mph55%30.12 "Hg10 mi
5:58 PM55 °FOvercast.9 mph49%30.13 "Hg10 mi
4:58 PM54 °FScattered clouds.9 mph50%30.14 "Hg10 mi
3:58 PM58 °FOvercast.17 mph38%30.13 "Hg10 mi
2:58 PM58 °FOvercast.5 mph38%30.14 "Hg10 mi
Weather by CustomWeather, © 2015

See weather overviewHow to use our weather pages